sat.trackr.live / text

‹ back to catalog

STARLINK-35615

NORAD 66257 · 2025-245Z

PAYLOAD ACTIVE UNKNOWN

§ Identity

Operator
Country
US
Launch date
2025-10-29
Launch site
AFETR
Launch vehicle
Mass (kg)
RCS (m²)

Purposes: comms

External: N2YO · Heavens-Above · Gunter

§ Orbital elements

Epoch: 2026-09-20T21:53:49.586208Z

Period
93.85 min
Inclination
53.1581°
Eccentricity
0.0001078
Mean motion
15.34404450 rev/d
Perigee alt
462.0 km
Apogee alt
463.4 km
Semi-major
6,840.8 km
B*
6.3934e-4
RAAN
95.8498°
Arg perigee
92.8695°
Mean anomaly
267.2431°
Rev number
5,116

§ Raw data

STARLINK-356151 66257U 25245Z   26263.91237947  .00021289  00000+0  63934-3 0  99942 66257  53.1581  95.8498 0001078  92.8695 267.2431 15.34404450 51167

JSON: /api/v1/satellites/66257 · /tle

For live sub-satellite position, see the globe view (requires WebGL).

§ Visibility from observer

Set your observer location to see the next 7 days of passes ≥ 10°. The values pass through the URL so the page stays shareable.

No JS? Fill the form by hand. The geolocation button needs JavaScript.